Time,TemperatureF,DewpointF,PressureIn,WindDirection,WindDirectionDegrees,WindSpeedMPH,WindSpeedGustMPH,Humidity,HourlyPrecipIn,Conditions,Clouds,dailyrainin,SoftwareType,DateUTC
2013-03-06 00:00:00,29.8,26.1,29.78,ENE,60,0.0,0.0,86,0.00,,CLR,0.00,VWS V13.01,2013-03-06 05:00:00,
2013-03-06 00:01:00,29.8,26.1,29.78,NNE,23,2.0,2.0,86,0.00,,CLR,0.00,VWS V13.01,2013-03-06 05:01:00,
2013-03-06 00:06:00,29.8,26.1,29.78,NE,49,0.0,3.0,86,0.00,,CLR,0.00,VWS V13.01,2013-03-06 05:06:00,
2013-03-06 00:11:00,29.8,26.1,29.78,ENE,65,2.0,5.0,86,0.00,,CLR,0.00,VWS V13.01,2013-03-06 05:11:00,
2013-03-06 00:16:00,29.9,26.2,29.78,ENE,71,1.0,5.0,86,0.00,,CLR,0.00,VWS V13.01,2013-03-06 05:16:00,
2013-03-06 00:21:00,29.8,26.1,29.77,NE,49,5.0,5.0,86,0.00,,CLR,0.00,VWS V13.01,2013-03-06 05:21:00,
2013-03-06 00:26:00,29.9,26.5,29.78,NE,54,0.0,5.0,87,0.00,,CLR,0.00,VWS V13.01,2013-03-06 05:26:00,
2013-03-06 00:31:00,29.9,26.5,29.78,NE,52,1.0,4.0,87,0.00,,CLR,0.00,VWS V13.01,2013-03-06 05:31:00,
2013-03-06 00:36:00,29.9,26.2,29.78,ENE,71,0.0,4.0,86,0.00,,CLR,0.00,VWS V13.01,2013-03-06 05:36:00,
2013-03-06 00:41:00,29.8,26.1,29.78,North,355,2.0,5.0,86,0.00,,CLR,0.00,VWS V13.01,2013-03-06 05:41:00,
2013-03-06 00:46:00,29.8,26.1,29.78,NNE,32,1.0,5.0,86,0.00,,CLR,0.00,VWS V13.01,2013-03-06 05:46:00,
2013-03-06 00:51:00,29.8,26.1,29.78,NE,42,0.0,5.0,86,0.00,,CLR,0.00,VWS V13.01,2013-03-06 05:51:00,
2013-03-06 00:56:00,29.8,26.1,29.78,NE,53,0.0,6.0,86,0.00,,CLR,0.00,VWS V13.01,2013-03-06 05:56:00,
2013-03-06 01:01:00,29.8,26.1,29.78,East,92,5.0,5.0,86,0.00,,CLR,0.00,VWS V13.01,2013-03-06 06:01:00,
2013-03-06 01:06:00,29.8,26.1,29.79,NE,40,0.0,7.0,86,0.00,,CLR,0.00,VWS V13.01,2013-03-06 06:06:00,
2013-03-06 01:11:00,29.8,26.1,29.79,ENE,71,2.0,7.0,86,0.00,,CLR,0.00,VWS V13.01,2013-03-06 06:11:00,
2013-03-06 01:16:00,29.8,26.1,29.79,NNE,33,1.0,7.0,86,0.00,,CLR,0.00,VWS V13.01,2013-03-06 06:16:00,
2013-03-06 01:21:00,29.7,26.0,29.79,ENE,75,2.0,7.0,86,0.00,,CLR,0.00,VWS V13.01,2013-03-06 06:21:00,
2013-03-06 01:26:00,29.7,26.0,29.79,NE,35,0.0,7.0,86,0.00,,CLR,0.00,VWS V13.01,2013-03-06 06:26:00,
2013-03-06 01:31:00,29.7,26.0,29.79,NE,44,3.0,4.0,86,0.00,,CLR,0.00,VWS V13.01,2013-03-06 06:31:00,
2013-03-06 01:36:00,29.7,26.0,29.79,ENE,58,0.0,4.0,86,0.00,,CLR,0.00,VWS V13.01,2013-03-06 06:36:00,
2013-03-06 01:41:00,29.6,25.9,29.79,NE,53,2.0,4.0,86,0.00,,CLR,0.00,VWS V13.01,2013-03-06 06:41:00,
2013-03-06 01:46:00,29.6,25.9,29.79,ENE,66,3.0,4.0,86,0.00,,CLR,0.00,VWS V13.01,2013-03-06 06:46:00,
2013-03-06 01:51:00,29.6,25.9,29.79,ENE,68,3.0,7.0,86,0.00,,CLR,0.00,VWS V13.01,2013-03-06 06:51:00,
2013-03-06 01:56:00,29.6,25.9,29.79,ENE,58,3.0,7.0,86,0.00,,CLR,0.00,VWS V13.01,2013-03-06 06:56:00,
2013-03-06 02:01:00,29.6,25.9,29.79,ENE,62,1.0,3.0,86,0.00,,CLR,0.00,VWS V13.01,2013-03-06 07:01:00,
2013-03-06 02:06:00,29.6,25.9,29.79,NE,48,0.0,4.0,86,0.00,,CLR,0.00,VWS V13.01,2013-03-06 07:06:00,
2013-03-06 02:11:00,29.6,25.9,29.79,NNE,31,1.0,5.0,86,0.00,,CLR,0.00,VWS V13.01,2013-03-06 07:11:00,
2013-03-06 02:16:00,29.6,25.9,29.79,NE,42,0.0,5.0,86,0.00,,CLR,0.00,VWS V13.01,2013-03-06 07:16:00,
2013-03-06 02:21:00,29.6,25.9,29.79,NE,46,2.0,5.0,86,0.00,,CLR,0.00,VWS V13.01,2013-03-06 07:21:00,
2013-03-06 02:26:00,29.6,25.6,29.79,ENE,62,0.0,7.0,85,0.00,,CLR,0.00,VWS V13.01,2013-03-06 07:26:00,
2013-03-06 02:31:00,29.6,25.6,29.79,ENE,57,0.0,5.0,85,0.00,,CLR,0.00,VWS V13.01,2013-03-06 07:31:00,
2013-03-06 02:36:00,29.6,25.6,29.79,ENE,66,3.0,7.0,85,0.00,,CLR,0.00,VWS V13.01,2013-03-06 07:36:00,
2013-03-06 02:41:00,29.6,25.6,29.79,NE,55,0.0,7.0,85,0.00,,CLR,0.00,VWS V13.01,2013-03-06 07:41:00,
2013-03-06 02:47:00,29.5,25.6,29.79,East,83,1.0,7.0,85,0.00,,CLR,0.00,VWS V13.01,2013-03-06 07:47:00,
2013-03-06 02:51:00,29.4,25.5,29.79,NNE,17,1.0,7.0,85,0.00,,CLR,0.00,VWS V13.01,2013-03-06 07:51:00,
2013-03-06 02:57:00,29.4,25.5,29.79,NE,40,0.0,7.0,85,0.00,,CLR,0.00,VWS V13.01,2013-03-06 07:57:00,
2013-03-06 03:02:00,29.4,25.5,29.79,ENE,57,4.0,8.0,85,0.00,,CLR,0.00,VWS V13.01,2013-03-06 08:02:00,
2013-03-06 03:07:00,29.4,25.5,29.79,NE,53,3.0,10.0,85,0.00,,CLR,0.00,VWS V13.01,2013-03-06 08:07:00,
2013-03-06 03:12:00,29.4,25.5,29.79,NNE,15,2.0,10.0,85,0.00,,CLR,0.00,VWS V13.01,2013-03-06 08:12:00,
2013-03-06 03:17:00,29.4,25.5,29.79,NE,49,0.0,10.0,85,0.00,,CLR,0.00,VWS V13.01,2013-03-06 08:17:00,
2013-03-06 03:22:00,29.3,25.4,29.79,ENE,69,0.0,10.0,85,0.00,,CLR,0.00,VWS V13.01,2013-03-06 08:22:00,
2013-03-06 03:27:00,29.3,25.6,29.79,East,88,0.0,10.0,86,0.00,,CLR,0.00,VWS V13.01,2013-03-06 08:27:00,
2013-03-06 03:32:00,29.3,25.4,29.79,NE,51,0.0,6.0,85,0.00,,CLR,0.00,VWS V13.01,2013-03-06 08:32:00,
2013-03-06 03:37:00,29.2,25.3,29.79,ENE,74,1.0,6.0,85,0.00,,CLR,0.00,VWS V13.01,2013-03-06 08:37:00,
2013-03-06 03:42:00,29.2,25.3,29.79,NNE,30,2.0,6.0,85,0.00,,CLR,0.00,VWS V13.01,2013-03-06 08:42:00,
2013-03-06 03:47:00,29.2,25.5,29.80,NE,37,0.0,9.0,86,0.00,,CLR,0.00,VWS V13.01,2013-03-06 08:47:00,
2013-03-06 03:52:00,29.2,25.5,29.80,NE,53,3.0,9.0,86,0.00,,CLR,0.00,VWS V13.01,2013-03-06 08:52:00,
2013-03-06 03:57:00,29.2,25.5,29.80,ENE,62,2.0,9.0,86,0.00,,CLR,0.00,VWS V13.01,2013-03-06 08:57:00,
2013-03-06 04:02:00,29.1,25.4,29.80,ENE,63,1.0,4.0,86,0.00,,CLR,0.00,VWS V13.01,2013-03-06 09:02:00,
2013-03-06 04:07:00,29.1,25.4,29.81,NE,39,3.0,4.0,86,0.00,,CLR,0.00,VWS V13.01,2013-03-06 09:07:00,
2013-03-06 04:12:00,29.0,25.4,29.81,East,95,0.0,6.0,86,0.00,,CLR,0.00,VWS V13.01,2013-03-06 09:12:00,
2013-03-06 04:17:00,28.9,25.2,29.81,East,85,2.0,9.0,86,0.00,,CLR,0.00,VWS V13.01,2013-03-06 09:17:00,
2013-03-06 04:22:00,28.9,25.2,29.81,East,94,1.0,9.0,86,0.00,,CLR,0.00,VWS V13.01,2013-03-06 09:22:00,
2013-03-06 04:27:00,28.9,25.2,29.81,NNE,30,4.0,11.0,86,0.00,,CLR,0.00,VWS V13.01,2013-03-06 09:27:00,
2013-03-06 04:32:00,28.8,25.1,29.81,NE,37,5.0,7.0,86,0.00,,CLR,0.00,VWS V13.01,2013-03-06 09:32:00,
2013-03-06 04:37:00,28.8,25.1,29.82,ENE,61,4.0,7.0,86,0.00,,CLR,0.00,VWS V13.01,2013-03-06 09:37:00,
2013-03-06 04:42:00,28.8,25.1,29.82,North,9,5.0,11.0,86,0.00,,CLR,0.00,VWS V13.01,2013-03-06 09:42:00,
2013-03-06 04:47:00,28.8,24.9,29.82,NE,44,9.0,14.0,85,0.00,,CLR,0.00,VWS V13.01,2013-03-06 09:47:00,
2013-03-06 04:52:00,28.7,24.8,29.82,ENE,67,2.0,14.0,85,0.00,,CLR,0.00,VWS V13.01,2013-03-06 09:52:00,
2013-03-06 04:57:00,28.6,24.7,29.83,NNE,23,5.0,14.0,85,0.00,,CLR,0.00,VWS V13.01,2013-03-06 09:57:00,
2013-03-06 05:02:00,28.5,24.6,29.83,ENE,70,3.0,5.0,85,0.00,,CLR,0.00,VWS V13.01,2013-03-06 10:02:00,
2013-03-06 05:07:00,28.4,24.5,29.83,NE,53,4.0,6.0,85,0.00,,CLR,0.00,VWS V13.01,2013-03-06 10:07:00,
2013-03-06 05:12:00,28.4,24.5,29.84,NE,39,1.0,7.0,85,0.00,,CLR,0.00,VWS V13.01,2013-03-06 10:12:00,
2013-03-06 05:17:00,28.3,24.4,29.84,ENE,69,2.0,7.0,85,0.00,,CLR,0.00,VWS V13.01,2013-03-06 10:17:00,
2013-03-06 05:22:00,28.3,24.4,29.85,ENE,76,3.0,7.0,85,0.00,,CLR,0.00,VWS V13.01,2013-03-06 10:22:00,
2013-03-06 05:27:00,28.2,24.3,29.85,ENE,76,3.0,7.0,85,0.00,,CLR,0.00,VWS V13.01,2013-03-06 10:27:00,
2013-03-06 05:32:00,28.2,24.6,29.85,ENE,66,2.0,6.0,86,0.00,,CLR,0.00,VWS V13.01,2013-03-06 10:32:00,
2013-03-06 05:37:00,28.1,24.5,29.86,NE,42,3.0,6.0,86,0.00,,CLR,0.00,VWS V13.01,2013-03-06 10:37:00,
2013-03-06 05:42:00,28.1,24.5,29.86,ENE,61,2.0,6.0,86,0.00,,CLR,0.00,VWS V13.01,2013-03-06 10:42:00,
2013-03-06 05:47:00,28.1,24.5,29.86,NE,48,1.0,6.0,86,0.00,,CLR,0.00,VWS V13.01,2013-03-06 10:47:00,
2013-03-06 05:52:00,28.1,24.5,29.87,NE,36,5.0,7.0,86,0.00,,CLR,0.00,VWS V13.01,2013-03-06 10:52:00,
2013-03-06 05:57:00,28.1,24.5,29.87,NE,52,3.0,7.0,86,0.00,,CLR,0.00,VWS V13.01,2013-03-06 10:57:00,
2013-03-06 06:02:00,28.0,24.4,29.88,East,86,0.0,5.0,86,0.00,,CLR,0.00,VWS V13.01,2013-03-06 11:02:00,
2013-03-06 06:07:00,28.0,24.4,29.88,NE,41,2.0,5.0,86,0.00,,CLR,0.00,VWS V13.01,2013-03-06 11:07:00,
2013-03-06 06:12:00,27.9,24.3,29.89,NE,53,1.0,5.0,86,0.00,,CLR,0.00,VWS V13.01,2013-03-06 11:12:00,
2013-03-06 06:17:00,27.9,24.3,29.89,NE,53,0.0,5.0,86,0.00,,CLR,0.00,VWS V13.01,2013-03-06 11:17:00,
2013-03-06 06:22:00,27.9,24.3,29.89,NE,48,0.0,5.0,86,0.00,,CLR,0.00,VWS V13.01,2013-03-06 11:22:00,
2013-03-06 06:27:00,27.8,24.2,29.89,ENE,60,2.0,5.0,86,0.00,,CLR,0.00,VWS V13.01,2013-03-06 11:27:00,
2013-03-06 06:32:00,27.7,24.3,29.90,NE,46,1.0,4.0,87,0.00,,CLR,0.00,VWS V13.01,2013-03-06 11:32:00,
2013-03-06 06:37:00,27.7,24.3,29.90,ENE,58,1.0,4.0,87,0.00,,CLR,0.00,VWS V13.01,2013-03-06 11:37:00,
2013-03-06 06:42:00,27.7,24.3,29.90,ENE,71,0.0,6.0,87,0.00,,CLR,0.00,VWS V13.01,2013-03-06 11:42:00,
2013-03-06 06:47:00,27.7,24.6,29.91,ENE,61,1.0,6.0,88,0.00,,CLR,0.00,VWS V13.01,2013-03-06 11:47:00,
2013-03-06 06:52:00,27.8,24.7,29.91,NNE,19,0.0,6.0,88,0.00,,CLR,0.00,VWS V13.01,2013-03-06 11:52:00,
2013-03-06 06:57:00,27.8,24.7,29.91,NE,43,1.0,6.0,88,0.00,,CLR,0.00,VWS V13.01,2013-03-06 11:57:00,
2013-03-06 07:02:00,27.8,24.7,29.92,ENE,57,1.0,3.0,88,0.00,,CLR,0.00,VWS V13.01,2013-03-06 12:02:00,
2013-03-06 07:07:00,27.8,25.0,29.92,NE,50,0.0,4.0,89,0.00,,CLR,0.00,VWS V13.01,2013-03-06 12:07:00,
2013-03-06 07:12:00,27.8,25.0,29.92,East,81,0.0,4.0,89,0.00,,CLR,0.00,VWS V13.01,2013-03-06 12:12:00,
2013-03-06 07:17:00,27.8,25.0,29.93,East,89,0.0,4.0,89,0.00,,CLR,0.00,VWS V13.01,2013-03-06 12:17:00,
2013-03-06 07:22:00,27.8,25.0,29.93,NE,47,2.0,5.0,89,0.00,,CLR,0.00,VWS V13.01,2013-03-06 12:22:00,
2013-03-06 07:27:00,27.9,25.1,29.94,NE,50,0.0,5.0,89,0.00,,CLR,0.00,VWS V13.01,2013-03-06 12:27:00,
2013-03-06 07:32:00,28.0,25.5,29.94,NE,40,0.0,5.0,90,0.00,,CLR,0.00,VWS V13.01,2013-03-06 12:32:00,
2013-03-06 07:37:00,28.1,25.5,29.94,NE,43,1.0,5.0,90,0.00,,CLR,0.00,VWS V13.01,2013-03-06 12:37:00,
2013-03-06 07:43:00,28.1,25.5,29.94,ENE,61,3.0,5.0,90,0.00,,CLR,0.00,VWS V13.01,2013-03-06 12:43:00,
2013-03-06 07:48:00,28.2,25.6,29.94,East,90,1.0,5.0,90,0.00,,CLR,0.00,VWS V13.01,2013-03-06 12:48:00,
2013-03-06 07:53:00,28.3,25.8,29.95,NE,53,1.0,5.0,90,0.00,,CLR,0.00,VWS V13.01,2013-03-06 12:53:00,
2013-03-06 07:58:00,28.5,26.0,29.95,NNE,12,4.0,5.0,90,0.00,,CLR,0.00,VWS V13.01,2013-03-06 12:58:00,
2013-03-06 08:03:00,28.7,26.1,29.96,ENE,60,4.0,5.0,90,0.00,,CLR,0.00,VWS V13.01,2013-03-06 13:03:00,
2013-03-06 08:08:00,28.8,26.2,29.96,ENE,70,3.0,7.0,90,0.00,,CLR,0.00,VWS V13.01,2013-03-06 13:08:00,
2013-03-06 08:13:00,29.0,26.4,29.96,NE,43,2.0,7.0,90,0.00,,CLR,0.00,VWS V13.01,2013-03-06 13:13:00,
2013-03-06 08:18:00,29.1,26.5,29.97,NE,47,3.0,7.0,90,0.00,,CLR,0.00,VWS V13.01,2013-03-06 13:18:00,
2013-03-06 08:23:00,29.3,26.7,29.97,East,87,4.0,7.0,90,0.00,,CLR,0.00,VWS V13.01,2013-03-06 13:23:00,
2013-03-06 08:28:00,29.5,26.9,29.98,NE,49,1.0,7.0,90,0.00,,CLR,0.00,VWS V13.01,2013-03-06 13:28:00,
2013-03-06 08:33:00,29.7,27.1,29.98,ENE,74,1.0,5.0,90,0.00,,CLR,0.00,VWS V13.01,2013-03-06 13:33:00,
2013-03-06 08:38:00,29.9,27.1,29.98,East,89,2.0,5.0,89,0.00,,CLR,0.00,VWS V13.01,2013-03-06 13:38:00,
2013-03-06 08:43:00,30.3,27.5,29.98,ENE,57,7.0,7.0,89,0.00,,CLR,0.00,VWS V13.01,2013-03-06 13:43:00,
2013-03-06 08:48:00,30.7,27.9,29.98,ENE,57,2.0,7.0,89,0.00,,CLR,0.00,VWS V13.01,2013-03-06 13:48:00,
2013-03-06 08:53:00,31.2,28.1,29.98,ENE,59,3.0,7.0,88,0.00,,CLR,0.00,VWS V13.01,2013-03-06 13:53:00,
2013-03-06 08:58:00,31.5,28.1,29.99,NE,39,4.0,7.0,87,0.00,,CLR,0.00,VWS V13.01,2013-03-06 13:58:00,
2013-03-06 09:03:00,31.7,28.3,29.98,ENE,78,5.0,6.0,87,0.00,,CLR,0.00,VWS V13.01,2013-03-06 14:03:00,
2013-03-06 09:08:00,31.9,28.2,29.99,NNE,14,3.0,7.0,86,0.00,,CLR,0.00,VWS V13.01,2013-03-06 14:08:00,
2013-03-06 09:13:00,32.3,28.6,29.99,NE,53,5.0,9.0,86,0.00,,CLR,0.00,VWS V13.01,2013-03-06 14:13:00,
2013-03-06 09:18:00,32.8,28.8,29.99,NE,46,2.0,9.0,85,0.00,,CLR,0.00,VWS V13.01,2013-03-06 14:18:00,
2013-03-06 09:23:00,33.5,29.2,29.99,ENE,63,2.0,9.0,84,0.00,,CLR,0.00,VWS V13.01,2013-03-06 14:23:00,
2013-03-06 09:28:00,34.0,29.1,29.99,NE,55,3.0,9.0,82,0.00,,CLR,0.00,VWS V13.01,2013-03-06 14:28:00,
2013-03-06 09:33:00,34.3,29.4,29.99,NE,47,2.0,9.0,82,0.00,,CLR,0.00,VWS V13.01,2013-03-06 14:33:00,
2013-03-06 09:38:00,34.4,28.9,29.99,NNE,19,1.0,10.0,80,0.01,,CLR,0.01,VWS V13.01,2013-03-06 14:38:00,
2013-03-06 09:43:00,35.2,30.0,29.99,NE,56,4.0,10.0,81,0.01,,CLR,0.01,VWS V13.01,2013-03-06 14:43:00,
2013-03-06 09:48:00,35.8,29.9,29.99,NE,43,2.0,10.0,79,0.01,,CLR,0.01,VWS V13.01,2013-03-06 14:48:00,
2013-03-06 09:53:00,36.2,30.0,29.99,North,9,2.0,10.0,78,0.01,,CLR,0.01,VWS V13.01,2013-03-06 14:53:00,
2013-03-06 09:58:00,36.5,29.7,29.99,ENE,70,2.0,10.0,76,0.01,,CLR,0.01,VWS V13.01,2013-03-06 14:58:00,
2013-03-06 10:03:00,37.2,30.4,29.99,ENE,65,1.0,6.0,76,0.01,,CLR,0.01,VWS V13.01,2013-03-06 15:03:00,
2013-03-06 10:08:00,37.8,30.3,29.99,ENE,69,2.0,6.0,74,0.01,,CLR,0.01,VWS V13.01,2013-03-06 15:08:00,
2013-03-06 10:13:00,38.0,30.5,29.99,NE,44,2.0,6.0,74,0.01,,CLR,0.01,VWS V13.01,2013-03-06 15:13:00,
2013-03-06 10:18:00,37.8,30.6,29.99,NNW,348,4.0,11.0,75,0.01,,CLR,0.01,VWS V13.01,2013-03-06 15:18:00,
2013-03-06 10:23:00,37.3,30.4,30.00,West,279,2.0,11.0,76,0.01,,CLR,0.01,VWS V13.01,2013-03-06 15:23:00,
2013-03-06 10:28:00,36.7,30.2,30.00,ENE,71,5.0,11.0,77,0.01,,CLR,0.01,VWS V13.01,2013-03-06 15:28:00,
2013-03-06 10:33:00,36.0,29.8,30.00,NE,53,5.0,6.0,78,0.01,,CLR,0.01,VWS V13.01,2013-03-06 15:33:00,
2013-03-06 10:38:00,35.2,29.4,30.01,NNE,24,1.0,12.0,79,0.01,,CLR,0.01,VWS V13.01,2013-03-06 15:38:00,
2013-03-06 10:44:00,35.4,29.9,30.01,NNE,26,4.0,12.0,80,0.01,,CLR,0.01,VWS V13.01,2013-03-06 15:44:00,
2013-03-06 10:49:00,35.6,30.4,30.01,NE,40,7.0,12.0,81,0.01,,CLR,0.01,VWS V13.01,2013-03-06 15:49:00,
2013-03-06 10:54:00,35.6,30.0,30.01,West,264,3.0,12.0,80,0.01,,CLR,0.01,VWS V13.01,2013-03-06 15:54:00,
2013-03-06 10:59:00,35.3,30.1,30.02,NNE,30,1.0,12.0,81,0.01,,CLR,0.01,VWS V13.01,2013-03-06 15:59:00,
2013-03-06 11:04:00,34.9,30.0,30.02,NE,53,7.0,7.0,82,0.00,,OVC060,0.01,VWS V13.01,2013-03-06 16:04:00,
2013-03-06 11:09:00,34.4,29.5,30.02,NE,51,4.0,7.0,82,0.00,,OVC060,0.01,VWS V13.01,2013-03-06 16:09:00,
2013-03-06 11:14:00,34.4,29.5,30.02,NE,42,1.0,7.0,82,0.01,,OVC060,0.02,VWS V13.01,2013-03-06 16:14:00,
2013-03-06 11:19:00,34.4,29.8,30.02,ENE,68,5.0,9.0,83,0.01,,OVC060,0.02,VWS V13.01,2013-03-06 16:19:00,
2013-03-06 11:24:00,34.1,29.5,30.02,East,88,3.0,9.0,83,0.01,,OVC060,0.02,VWS V13.01,2013-03-06 16:24:00,
2013-03-06 11:29:00,34.3,30.0,30.03,North,355,0.0,9.0,84,0.01,,OVC060,0.02,VWS V13.01,2013-03-06 16:29:00,
2013-03-06 11:34:00,34.4,30.1,30.03,East,91,4.0,6.0,84,0.01,,OVC060,0.02,VWS V13.01,2013-03-06 16:34:00,
2013-03-06 11:39:00,34.4,30.1,30.03,NE,39,1.0,11.0,84,0.01,,OVC060,0.02,VWS V13.01,2013-03-06 16:39:00,
2013-03-06 11:44:00,34.4,29.8,30.03,ENE,57,2.0,11.0,83,0.01,,OVC060,0.02,VWS V13.01,2013-03-06 16:44:00,
2013-03-06 11:49:00,34.7,30.4,30.03,East,95,4.0,11.0,84,0.01,,OVC060,0.02,VWS V13.01,2013-03-06 16:49:00,
2013-03-06 11:54:00,34.4,29.5,30.03,ENE,67,4.0,12.0,82,0.02,,OVC060,0.03,VWS V13.01,2013-03-06 16:54:00,
2013-03-06 11:59:00,34.2,29.6,30.03,North,5,6.0,12.0,83,0.02,,OVC060,0.03,VWS V13.01,2013-03-06 16:59:00,
2013-03-06 12:04:00,34.1,29.5,30.03,NE,52,0.0,7.0,83,0.02,,OVC055,0.03,VWS V13.01,2013-03-06 17:04:00,
2013-03-06 12:09:00,34.1,29.8,30.04,NE,39,0.0,9.0,84,0.02,,OVC055,0.03,VWS V13.01,2013-03-06 17:09:00,
2013-03-06 12:14:00,33.9,29.6,30.04,North,9,4.0,9.0,84,0.02,,OVC055,0.03,VWS V13.01,2013-03-06 17:14:00,
2013-03-06 12:19:00,33.9,29.6,30.04,NNE,25,3.0,9.0,84,0.02,,OVC055,0.03,VWS V13.01,2013-03-06 17:19:00,
2013-03-06 12:24:00,33.9,29.6,30.04,NNE,23,5.0,9.0,84,0.02,,OVC055,0.03,VWS V13.01,2013-03-06 17:24:00,
2013-03-06 12:29:00,33.9,29.6,30.04,East,81,6.0,9.0,84,0.02,,OVC055,0.03,VWS V13.01,2013-03-06 17:29:00,
2013-03-06 12:34:00,33.7,29.4,30.04,ENE,71,3.0,12.0,84,0.01,,OVC055,0.03,VWS V13.01,2013-03-06 17:34:00,
2013-03-06 12:39:00,33.5,29.2,30.04,NNE,26,1.0,12.0,84,0.01,,OVC055,0.03,VWS V13.01,2013-03-06 17:39:00,
2013-03-06 12:44:00,33.4,29.1,30.04,NE,53,2.0,12.0,84,0.01,,OVC055,0.03,VWS V13.01,2013-03-06 17:44:00,
2013-03-06 12:49:00,33.6,29.3,30.04,NE,56,3.0,12.0,84,0.01,,OVC055,0.03,VWS V13.01,2013-03-06 17:49:00,
2013-03-06 12:54:00,33.8,29.5,30.04,NE,51,6.0,12.0,84,0.01,,OVC055,0.03,VWS V13.01,2013-03-06 17:54:00,
2013-03-06 12:59:00,34.0,29.7,30.03,ENE,57,0.0,12.0,84,0.01,,OVC055,0.03,VWS V13.01,2013-03-06 17:59:00,
2013-03-06 13:04:00,34.4,30.1,30.04,NE,34,2.0,11.0,84,0.00,,OVC055,0.03,VWS V13.01,2013-03-06 18:04:00,
2013-03-06 13:09:00,34.3,29.7,30.03,ENE,60,0.0,11.0,83,0.00,,OVC055,0.03,VWS V13.01,2013-03-06 18:09:00,
2013-03-06 13:14:00,34.4,29.8,30.03,ENE,58,8.0,11.0,83,0.00,,OVC055,0.03,VWS V13.01,2013-03-06 18:14:00,
2013-03-06 13:19:00,34.4,29.8,30.03,NE,49,2.0,11.0,83,0.00,,OVC055,0.03,VWS V13.01,2013-03-06 18:19:00,
2013-03-06 13:24:00,34.4,29.5,30.03,NNE,26,7.0,11.0,82,0.00,,OVC055,0.03,VWS V13.01,2013-03-06 18:24:00,
2013-03-06 13:29:00,34.4,29.5,30.03,East,83,1.0,11.0,82,0.00,,OVC055,0.03,VWS V13.01,2013-03-06 18:29:00,
2013-03-06 13:34:00,34.4,29.8,30.03,ENE,61,9.0,13.0,83,0.01,,OVC055,0.04,VWS V13.01,2013-03-06 18:34:00,
2013-03-06 13:39:00,34.4,29.8,30.03,East,89,2.0,13.0,83,0.01,,OVC055,0.04,VWS V13.01,2013-03-06 18:39:00,
2013-03-06 13:44:00,34.4,29.8,30.03,ENE,60,4.0,13.0,83,0.01,,OVC055,0.04,VWS V13.01,2013-03-06 18:44:00,
2013-03-06 13:49:00,34.4,29.8,30.03,NE,47,3.0,13.0,83,0.01,,OVC055,0.04,VWS V13.01,2013-03-06 18:49:00,
2013-03-06 13:54:00,34.4,29.5,30.03,NNE,32,1.0,13.0,82,0.01,,OVC055,0.04,VWS V13.01,2013-03-06 18:54:00,
2013-03-06 13:59:00,34.4,29.5,30.03,North,10,2.0,13.0,82,0.01,,OVC055,0.04,VWS V13.01,2013-03-06 18:59:00,
2013-03-06 14:04:00,34.6,29.7,30.03,NE,50,3.0,10.0,82,0.01,,OVC055,0.04,VWS V13.01,2013-03-06 19:04:00,
2013-03-06 14:09:00,34.8,29.9,30.03,NE,51,2.0,10.0,82,0.01,,OVC055,0.04,VWS V13.01,2013-03-06 19:09:00,
2013-03-06 14:14:00,34.9,29.7,30.03,NE,49,4.0,10.0,81,0.01,,OVC055,0.04,VWS V13.01,2013-03-06 19:14:00,
2013-03-06 14:19:00,35.0,29.8,30.03,NNE,22,1.0,10.0,81,0.01,,OVC055,0.04,VWS V13.01,2013-03-06 19:19:00,
2013-03-06 14:24:00,35.2,30.0,30.04,NNW,338,1.0,11.0,81,0.01,,OVC055,0.04,VWS V13.01,2013-03-06 19:24:00,
2013-03-06 14:29:00,35.3,30.1,30.04,NNE,22,3.0,3.0,81,0.01,,OVC055,0.04,VWS V13.01,2013-03-06 19:29:00,
2013-03-06 14:34:00,35.2,29.7,30.04,NE,34,2.0,9.0,80,0.01,,OVC055,0.04,VWS V13.01,2013-03-06 19:34:00,
2013-03-06 14:39:00,35.3,30.1,30.04,NNW,347,2.0,9.0,81,0.01,,OVC055,0.04,VWS V13.01,2013-03-06 19:39:00,
2013-03-06 14:44:00,35.5,30.3,30.05,NE,38,1.0,9.0,81,0.01,,OVC055,0.04,VWS V13.01,2013-03-06 19:44:00,
2013-03-06 14:49:00,35.6,30.4,30.05,NNE,30,2.0,9.0,81,0.01,,OVC055,0.04,VWS V13.01,2013-03-06 19:49:00,
2013-03-06 14:54:00,35.6,30.4,30.04,NNE,19,2.0,9.0,81,0.01,,OVC055,0.04,VWS V13.01,2013-03-06 19:54:00,
2013-03-06 14:59:00,35.6,30.7,30.04,SE,133,3.0,9.0,82,0.01,,OVC055,0.04,VWS V13.01,2013-03-06 19:59:00,
2013-03-06 15:04:00,35.5,30.6,30.04,ENE,71,1.0,12.0,82,0.00,,OVC050,0.04,VWS V13.01,2013-03-06 20:04:00,
2013-03-06 15:09:00,35.6,30.7,30.04,NNW,347,3.0,12.0,82,0.00,,OVC050,0.04,VWS V13.01,2013-03-06 20:09:00,
2013-03-06 15:14:00,35.8,30.9,30.04,NE,55,4.0,12.0,82,0.00,,OVC050,0.04,VWS V13.01,2013-03-06 20:14:00,
2013-03-06 15:19:00,36.1,31.5,30.04,North,349,2.0,12.0,83,0.00,,OVC050,0.04,VWS V13.01,2013-03-06 20:19:00,
2013-03-06 15:24:00,36.2,31.2,30.05,North,360,0.0,12.0,82,0.00,,OVC050,0.04,VWS V13.01,2013-03-06 20:24:00,
2013-03-06 15:29:00,36.4,31.4,30.05,NNW,333,1.0,2.0,82,0.00,,OVC050,0.04,VWS V13.01,2013-03-06 20:29:00,
2013-03-06 15:34:00,36.3,31.3,30.05,ENE,57,2.0,10.0,82,0.00,,OVC050,0.04,VWS V13.01,2013-03-06 20:34:00,
2013-03-06 15:39:00,36.2,31.2,30.05,ENE,61,9.0,10.0,82,0.00,,OVC050,0.04,VWS V13.01,2013-03-06 20:39:00,
2013-03-06 15:44:00,36.1,31.5,30.06,NW,318,0.0,10.0,83,0.00,,OVC050,0.04,VWS V13.01,2013-03-06 20:44:00,
2013-03-06 15:49:00,36.1,31.5,30.06,North,5,0.0,10.0,83,0.00,,OVC050,0.04,VWS V13.01,2013-03-06 20:49:00,
2013-03-06 15:54:00,36.0,31.4,30.06,NNW,337,3.0,10.0,83,0.00,,OVC050,0.04,VWS V13.01,2013-03-06 20:54:00,
2013-03-06 16:00:00,35.9,31.2,30.06,NNE,17,1.0,4.0,83,0.00,,OVC050,0.04,VWS V13.01,2013-03-06 21:00:00,
2013-03-06 16:05:00,35.8,31.5,30.06,NW,317,0.0,4.0,84,0.00,,OVC050,0.04,VWS V13.01,2013-03-06 21:05:00,
2013-03-06 16:10:00,35.7,31.4,30.06,North,355,0.0,5.0,84,0.00,,OVC050,0.04,VWS V13.01,2013-03-06 21:10:00,
2013-03-06 16:15:00,35.8,31.5,30.06,ENE,63,1.0,5.0,84,0.00,,OVC050,0.04,VWS V13.01,2013-03-06 21:15:00,
2013-03-06 16:20:00,35.7,31.6,30.06,North,355,1.0,5.0,85,0.00,,OVC050,0.04,VWS V13.01,2013-03-06 21:20:00,
2013-03-06 16:25:00,35.6,31.5,30.06,NW,321,0.0,5.0,85,0.00,,OVC050,0.04,VWS V13.01,2013-03-06 21:25:00,
2013-03-06 16:30:00,35.6,31.8,30.07,NNW,341,0.0,1.0,86,0.00,,OVC050,0.04,VWS V13.01,2013-03-06 21:30:00,
2013-03-06 16:35:00,35.5,31.7,30.07,North,355,0.0,6.0,86,0.00,,OVC050,0.04,VWS V13.01,2013-03-06 21:35:00,
2013-03-06 16:40:00,35.4,31.9,30.07,West,274,2.0,6.0,87,0.00,,OVC050,0.04,VWS V13.01,2013-03-06 21:40:00,
2013-03-06 16:45:00,35.3,31.8,30.07,North,355,1.0,6.0,87,0.00,,OVC050,0.04,VWS V13.01,2013-03-06 21:45:00,
2013-03-06 16:50:00,35.2,32.0,30.08,ENE,69,0.0,6.0,88,0.00,,OVC050,0.04,VWS V13.01,2013-03-06 21:50:00,
2013-03-06 16:55:00,35.2,32.0,30.08,ENE,64,0.0,6.0,88,0.00,,OVC050,0.04,VWS V13.01,2013-03-06 21:55:00,
2013-03-06 17:00:00,35.3,32.1,30.08,ENE,78,1.0,1.0,88,0.00,,OVC050,0.04,VWS V13.01,2013-03-06 22:00:00,
2013-03-06 17:05:00,35.3,32.4,30.08,ENE,59,0.0,3.0,89,0.00,,OVC050,0.04,VWS V13.01,2013-03-06 22:05:00,
2013-03-06 17:10:00,35.3,32.4,30.08,NNE,23,1.0,5.0,89,0.00,,OVC050,0.04,VWS V13.01,2013-03-06 22:10:00,
2013-03-06 17:15:00,35.3,32.4,30.08,NE,51,0.0,5.0,89,0.00,,OVC050,0.04,VWS V13.01,2013-03-06 22:15:00,
2013-03-06 17:20:00,35.3,32.4,30.08,NE,44,0.0,6.0,89,0.00,,OVC050,0.04,VWS V13.01,2013-03-06 22:20:00,
2013-03-06 17:25:00,35.3,32.4,30.08,ENE,57,2.0,6.0,89,0.00,,OVC050,0.04,VWS V13.01,2013-03-06 22:25:00,
2013-03-06 17:30:00,35.3,32.4,30.08,NE,37,0.0,1.0,89,0.00,,OVC050,0.04,VWS V13.01,2013-03-06 22:30:00,
2013-03-06 17:35:00,35.2,32.3,30.08,ENE,67,4.0,7.0,89,0.00,,OVC050,0.04,VWS V13.01,2013-03-06 22:35:00,
2013-03-06 17:40:00,35.2,32.3,30.08,NE,53,0.0,7.0,89,0.00,,OVC050,0.04,VWS V13.01,2013-03-06 22:40:00,
2013-03-06 17:45:00,35.2,32.3,30.08,East,80,4.0,7.0,89,0.00,,OVC050,0.04,VWS V13.01,2013-03-06 22:45:00,
2013-03-06 17:50:00,35.1,32.2,30.08,NE,53,1.0,7.0,89,0.00,,OVC050,0.04,VWS V13.01,2013-03-06 22:50:00,
2013-03-06 17:55:00,35.1,32.5,30.08,NNE,17,2.0,7.0,90,0.00,,OVC050,0.04,VWS V13.01,2013-03-06 22:55:00,
2013-03-06 18:00:00,35.1,32.5,30.08,NE,48,2.0,3.0,90,0.00,,OVC050,0.04,VWS V13.01,2013-03-06 23:00:00,
2013-03-06 18:05:00,35.1,32.5,30.08,NE,47,0.0,6.0,90,0.00,,OVC050,0.04,VWS V13.01,2013-03-06 23:05:00,
2013-03-06 18:10:00,35.0,32.4,30.09,NNE,13,2.0,6.0,90,0.00,,OVC050,0.04,VWS V13.01,2013-03-06 23:10:00,
2013-03-06 18:15:00,35.0,32.4,30.09,NNE,32,0.0,6.0,90,0.00,,OVC050,0.04,VWS V13.01,2013-03-06 23:15:00,
2013-03-06 18:20:00,35.0,32.4,30.09,NE,52,5.0,8.0,90,0.00,,OVC050,0.04,VWS V13.01,2013-03-06 23:20:00,
2013-03-06 18:25:00,34.9,32.3,30.09,ENE,66,2.0,8.0,90,0.00,,OVC050,0.04,VWS V13.01,2013-03-06 23:25:00,
2013-03-06 18:30:00,34.9,32.3,30.09,ENE,61,2.0,5.0,90,0.00,,OVC050,0.04,VWS V13.01,2013-03-06 23:30:00,
2013-03-06 18:35:00,34.9,32.3,30.10,ENE,64,1.0,6.0,90,0.00,,OVC050,0.04,VWS V13.01,2013-03-06 23:35:00,
2013-03-06 18:40:00,34.9,32.3,30.10,NE,41,1.0,6.0,90,0.00,,OVC050,0.04,VWS V13.01,2013-03-06 23:40:00,
2013-03-06 18:45:00,34.9,32.3,30.10,ENE,73,2.0,6.0,90,0.00,,OVC050,0.04,VWS V13.01,2013-03-06 23:45:00,
2013-03-06 18:50:00,34.9,32.3,30.10,ENE,61,0.0,6.0,90,0.00,,OVC050,0.04,VWS V13.01,2013-03-06 23:50:00,
2013-03-06 18:55:00,35.0,32.4,30.11,NE,52,0.0,6.0,90,0.00,,OVC050,0.04,VWS V13.01,2013-03-06 23:55:00,
2013-03-06 19:00:00,34.9,32.3,30.10,NE,49,1.0,4.0,90,0.00,,OVC050,0.04,VWS V13.01,2013-03-07 00:00:00,
2013-03-06 19:05:00,34.8,32.2,30.11,NW,325,3.0,6.0,90,0.00,,OVC050,0.04,VWS V13.01,2013-03-07 00:05:00,
2013-03-06 19:10:00,34.8,32.2,30.11,NE,56,0.0,6.0,90,0.00,,OVC050,0.04,VWS V13.01,2013-03-07 00:10:00,
2013-03-06 19:15:00,34.7,32.1,30.11,ENE,57,3.0,6.0,90,0.00,,OVC050,0.04,VWS V13.01,2013-03-07 00:15:00,
2013-03-06 19:20:00,34.7,32.1,30.11,ENE,59,0.0,6.0,90,0.00,,OVC050,0.04,VWS V13.01,2013-03-07 00:20:00,
2013-03-06 19:25:00,34.6,32.0,30.11,NE,40,0.0,6.0,90,0.00,,OVC050,0.04,VWS V13.01,2013-03-07 00:25:00,
2013-03-06 19:30:00,34.5,31.9,30.11,NE,40,0.0,2.0,90,0.00,,OVC050,0.04,VWS V13.01,2013-03-07 00:30:00,
2013-03-06 19:36:00,34.4,31.8,30.11,NE,40,0.0,2.0,90,0.00,,OVC050,0.04,VWS V13.01,2013-03-07 00:36:00,
2013-03-06 19:41:00,34.4,31.8,30.11,NE,40,0.0,2.0,90,0.00,,OVC050,0.04,VWS V13.01,2013-03-07 00:41:00,
2013-03-06 19:46:00,34.4,31.8,30.11,NNE,26,1.0,3.0,90,0.00,,OVC050,0.04,VWS V13.01,2013-03-07 00:46:00,
2013-03-06 19:51:00,34.4,31.8,30.11,ENE,57,2.0,4.0,90,0.00,,OVC050,0.04,VWS V13.01,2013-03-07 00:51:00,
2013-03-06 19:56:00,34.4,32.0,30.11,North,351,1.0,4.0,91,0.00,,OVC050,0.04,VWS V13.01,2013-03-07 00:56:00,
2013-03-06 20:01:00,34.4,32.0,30.11,NE,46,0.0,1.0,91,0.00,,OVC050,0.04,VWS V13.01,2013-03-07 01:01:00,
2013-03-06 20:06:00,34.4,32.0,30.11,NE,46,0.0,2.0,91,0.00,,OVC050,0.04,VWS V13.01,2013-03-07 01:06:00,
2013-03-06 20:11:00,34.4,32.0,30.11,NE,46,0.0,2.0,91,0.00,,OVC050,0.04,VWS V13.01,2013-03-07 01:11:00,
2013-03-06 20:16:00,34.4,32.0,30.11,NNE,13,1.0,3.0,91,0.00,,OVC050,0.04,VWS V13.01,2013-03-07 01:16:00,
2013-03-06 20:21:00,34.4,32.0,30.11,NNE,13,0.0,3.0,91,0.00,,OVC050,0.04,VWS V13.01,2013-03-07 01:21:00,
2013-03-06 20:26:00,34.4,32.0,30.11,NE,49,0.0,3.0,91,0.00,,OVC050,0.04,VWS V13.01,2013-03-07 01:26:00,
2013-03-06 20:31:00,34.4,32.0,30.11,NE,49,0.0,0.0,91,0.00,,OVC050,0.04,VWS V13.01,2013-03-07 01:31:00,
2013-03-06 20:36:00,34.3,32.0,30.11,NE,49,1.0,1.0,91,0.00,,OVC050,0.04,VWS V13.01,2013-03-07 01:36:00,
2013-03-06 20:41:00,34.2,31.9,30.12,NE,49,0.0,2.0,91,0.00,,OVC050,0.04,VWS V13.01,2013-03-07 01:41:00,
2013-03-06 20:46:00,34.2,31.9,30.12,NE,49,0.0,2.0,91,0.00,,OVC050,0.04,VWS V13.01,2013-03-07 01:46:00,
2013-03-06 20:51:00,34.1,31.8,30.12,NE,49,0.0,2.0,91,0.00,,OVC050,0.04,VWS V13.01,2013-03-07 01:51:00,
2013-03-06 20:56:00,34.1,31.8,30.12,NE,49,0.0,2.0,91,0.00,,OVC050,0.04,VWS V13.01,2013-03-07 01:56:00,
2013-03-06 21:01:00,34.0,31.6,30.11,NE,49,0.0,0.0,91,0.00,,OVC050,0.04,VWS V13.01,2013-03-07 02:01:00,
2013-03-06 21:06:00,33.9,31.6,30.11,NE,49,0.0,1.0,91,0.00,,OVC050,0.04,VWS V13.01,2013-03-07 02:06:00,
2013-03-06 21:11:00,33.9,31.6,30.11,NE,49,0.0,1.0,91,0.00,,OVC050,0.04,VWS V13.01,2013-03-07 02:11:00,
2013-03-06 21:16:00,33.9,31.6,30.11,NE,49,0.0,1.0,91,0.00,,OVC050,0.04,VWS V13.01,2013-03-07 02:16:00,
2013-03-06 21:21:00,33.8,31.5,30.11,NE,49,0.0,1.0,91,0.00,,OVC050,0.04,VWS V13.01,2013-03-07 02:21:00,
2013-03-06 21:26:00,33.7,31.6,30.11,NE,49,0.0,1.0,92,0.00,,OVC050,0.04,VWS V13.01,2013-03-07 02:26:00,
2013-03-06 21:31:00,33.7,31.6,30.11,NE,49,0.0,0.0,92,0.00,,OVC050,0.04,VWS V13.01,2013-03-07 02:31:00,
2013-03-06 21:36:00,33.7,31.6,30.11,NE,49,0.0,1.0,92,0.00,,OVC050,0.04,VWS V13.01,2013-03-07 02:36:00,
2013-03-06 21:41:00,33.7,31.6,30.11,NE,49,0.0,1.0,92,0.00,,OVC050,0.04,VWS V13.01,2013-03-07 02:41:00,
2013-03-06 21:46:00,33.6,31.5,30.12,NE,49,0.0,1.0,92,0.00,,OVC050,0.04,VWS V13.01,2013-03-07 02:46:00,
2013-03-06 21:51:00,33.6,31.5,30.12,NE,49,0.0,1.0,92,0.00,,OVC050,0.04,VWS V13.01,2013-03-07 02:51:00,
2013-03-06 21:56:00,33.5,31.4,30.12,NE,49,0.0,1.0,92,0.00,,OVC050,0.04,VWS V13.01,2013-03-07 02:56:00,
2013-03-06 22:01:00,33.5,31.4,30.12,NE,49,0.0,0.0,92,0.00,,OVC050,0.04,VWS V13.01,2013-03-07 03:01:00,
2013-03-06 22:06:00,33.4,31.3,30.12,NE,49,0.0,0.0,92,0.00,,OVC050,0.04,VWS V13.01,2013-03-07 03:06:00,
2013-03-06 22:11:00,33.4,31.3,30.12,NE,49,0.0,0.0,92,0.00,,OVC050,0.04,VWS V13.01,2013-03-07 03:11:00,
2013-03-06 22:16:00,33.4,31.3,30.12,NE,49,0.0,0.0,92,0.00,,OVC050,0.04,VWS V13.01,2013-03-07 03:16:00,
2013-03-06 22:21:00,33.3,31.2,30.12,NE,49,0.0,0.0,92,0.00,,OVC050,0.04,VWS V13.01,2013-03-07 03:21:00,
2013-03-06 22:26:00,33.3,31.2,30.12,NE,49,0.0,0.0,92,0.00,,OVC050,0.04,VWS V13.01,2013-03-07 03:26:00,
2013-03-06 22:31:00,33.3,31.2,30.12,NE,49,0.0,0.0,92,0.00,,OVC050,0.04,VWS V13.01,2013-03-07 03:31:00,
2013-03-06 22:36:00,33.2,31.1,30.12,NE,49,0.0,0.0,92,0.00,,OVC050,0.04,VWS V13.01,2013-03-07 03:36:00,
2013-03-06 22:41:00,33.2,31.4,30.12,NE,49,0.0,0.0,93,0.00,,OVC050,0.04,VWS V13.01,2013-03-07 03:41:00,
2013-03-06 22:46:00,33.2,31.4,30.12,NE,49,0.0,0.0,93,0.00,,OVC050,0.04,VWS V13.01,2013-03-07 03:46:00,
2013-03-06 22:51:00,33.1,31.3,30.12,NE,49,0.0,0.0,93,0.00,,OVC050,0.04,VWS V13.01,2013-03-07 03:51:00,
2013-03-06 22:56:00,33.0,31.2,30.12,NE,49,0.0,0.0,93,0.00,,OVC050,0.04,VWS V13.01,2013-03-07 03:56:00,
2013-03-06 23:01:00,33.0,30.9,30.12,NE,49,0.0,0.0,92,0.00,,OVC050,0.04,VWS V13.01,2013-03-07 04:01:00,
2013-03-06 23:06:00,33.0,31.2,30.12,NE,49,0.0,0.0,93,0.00,,OVC050,0.04,VWS V13.01,2013-03-07 04:06:00,
2013-03-06 23:11:00,33.0,31.2,30.12,NE,49,0.0,0.0,93,0.00,,OVC050,0.04,VWS V13.01,2013-03-07 04:11:00,
2013-03-06 23:17:00,33.0,31.2,30.12,NE,49,0.0,0.0,93,0.00,,OVC050,0.04,VWS V13.01,2013-03-07 04:17:00,
2013-03-06 23:22:00,33.0,31.2,30.12,NE,49,0.0,0.0,93,0.00,,OVC050,0.04,VWS V13.01,2013-03-07 04:22:00,
2013-03-06 23:27:00,33.0,31.2,30.12,NE,49,0.0,0.0,93,0.00,,OVC050,0.04,VWS V13.01,2013-03-07 04:27:00,
2013-03-06 23:32:00,33.0,31.2,30.12,NE,49,0.0,0.0,93,0.00,,OVC050,0.04,VWS V13.01,2013-03-07 04:32:00,
2013-03-06 23:37:00,32.9,31.1,30.12,NE,49,0.0,0.0,93,0.00,,OVC050,0.04,VWS V13.01,2013-03-07 04:37:00,
2013-03-06 23:42:00,32.9,31.1,30.12,NE,49,0.0,0.0,93,0.00,,OVC050,0.04,VWS V13.01,2013-03-07 04:42:00,
2013-03-06 23:47:00,32.8,31.0,30.12,NE,49,0.0,0.0,93,0.00,,OVC050,0.04,VWS V13.01,2013-03-07 04:47:00,
2013-03-06 23:52:00,32.7,30.9,30.12,NE,49,0.0,0.0,93,0.00,,OVC050,0.04,VWS V13.01,2013-03-07 04:52:00,
2013-03-06 23:57:00,32.7,30.9,30.12,NE,49,0.0,0.0,93,0.00,,OVC050,0.04,VWS V13.01,2013-03-07 04:57:00,